Location: Cerroniocc
(13.7547°S, 72.0222°W)
Time: 18:20:00
(UTC+00:00)

Meteor 2-5 Rocket - Pass Details

Date: 05 July 2020
Orbit: 833 x 912 km, 81.2° (Epoch: 10 August)

Event Time Altitude Azimuth Distance (km) Brightness Sun altitude
Rises 23:08:00 0° 177° (S) 3,418 6.6 -8.7°
Reaches altitude 10° 23:10:29 10° 172° (S) 2,487 5.9 -9.2°
Maximum altitude 23:15:57 51° 96° (E) 1,079 3.9 -10.5°
Drops below altitude 10° 23:21:29 10° 21° (NNE) 2,518 6.2 -11.7°
Sets 23:24:00 0° 16° (NNE) 3,463 6.9 -12.3°
